Arroyo de Medina,

3:02 AM CST on February 26, 2017 (GMT -0600)
Queretaro Airport

Weather History for MMQT - February, 2013

Change the Weather History Date:

Friday, February 1, 2013

  Actual Average Record
Temperature  
Mean Temperature 64 °F -  
Max Temperature 81 °F 73 °F 82 °F (2016)
Min Temperature 46 °F 45 °F 39 °F (2004)
Degree Days  
Heating Degree Days 2    
Growing Degree Days 14 (Base 50)    
Moisture  
Dew Point 39 °F    
Average Humidity 52    
Maximum Humidity 93    
Minimum Humidity 10    
Precipitation  
Precipitation 0.00 in - - ()
Sea Level Pressure  
Sea Level Pressure 30.22 in    
Wind  
Wind Speed 5 mph ()    
Max Wind Speed 14 mph    
Max Gust Speed -    
Visibility 8.1 miles    
Events      
Averages and records for this station are not official NWS values.
T = Trace of Precipitation, MM = Missing Value Source: Averaged Metar Reports

Daily Weather History Graph

Daily Weather History Graph

Search for Another Location

Airport or City:

Trip Planner

Search our weather history database for the weather conditions in past years. The results will help you decide how hot, cold, wet, or windy it might be!

Date:

Astronomy

Feb. 01, 2013 Rise Set
Actual Time 7:16 AM CST 6:32 PM CST
Civil Twilight 6:53 AM CST 6:55 PM CST
Nautical Twilight 6:27 AM CST 7:21 PM CST
Astronomical Twilight 6:01 AM CST 7:47 PM CST
Moon 11:44 PM CST (2/1) 10:42 AM CST (2/1)
Length of Visible Light 12h 01m
Length of Day
11h 15m
Waning Gibbous, 70% of the Moon is Illuminated
Feb 1
Waning Gibbous
Feb 3
Last Quarter
Feb 10
New
Feb 17
First Quarter
Feb 25
Full

Hourly Weather History & Observations

Time (CST) Temp. Windchill Dew Point Humidity Pressure Visibility Wind Dir Wind Speed Gust Speed Precip Events Conditions
12:45 AM 46.4 °F 42.9 °F 41.0 °F 81% 30.33 in 7.0 mi ESE 6.9 mph - N/A   Scattered Clouds
1:50 AM 44.6 °F 43.1 °F 41.0 °F 87% 30.33 in 7.0 mi WNW 3.5 mph - N/A   Scattered Clouds
2:45 AM 42.8 °F 41.1 °F 39.2 °F 87% 30.33 in 7.0 mi WSW 3.5 mph - N/A   Scattered Clouds
3:45 AM 41.0 °F - 37.4 °F 87% 30.33 in 7.0 mi Calm Calm - N/A   Scattered Clouds
4:45 AM 41.0 °F 38.0 °F 37.4 °F 87% 30.33 in 6.0 mi NE 4.6 mph - N/A   Scattered Clouds
5:45 AM 48 °F - 36 °F 52% 30.01 in 6 mi SE 2.2 mph - -  
5:47 AM 39.2 °F - 37.4 °F 93% 30.33 in 6.0 mi Calm Calm - N/A   Clear
6:45 AM 37.4 °F 32.8 °F 32.0 °F 81% 30.30 in 6.0 mi East 5.8 mph - N/A   Scattered Clouds
7:45 AM 37.4 °F - 32.0 °F 81% 30.38 in 6.0 mi Calm Calm - N/A   Scattered Clouds
8:45 AM 48.2 °F - 39.2 °F 71% 30.34 in 6.0 mi East 5.8 mph - N/A   Scattered Clouds
9:00 AM 50 °F - 37 °F 51% 30.07 in 12 mi West 11.2 mph - -  
9:45 AM 53.6 °F - 37.4 °F 54% 30.34 in 7.0 mi East 5.8 mph - N/A   Scattered Clouds
10:45 AM 60.8 °F - 39.2 °F 45% 30.32 in 6.0 mi SE 6.9 mph - N/A   Clear
11:45 AM 71.6 °F - 42.8 °F 35% 30.32 in 6.0 mi East 11.5 mph - N/A   Clear
11:50 AM 74 °F - 37 °F 16% 30.01 in 16 mi East 4.5 mph - -  
12:45 PM 75.2 °F - 39.2 °F 27% 30.32 in 6.0 mi ENE 9.2 mph - N/A   Clear
1:45 PM 78.8 °F - 39.2 °F 24% 30.28 in 7.0 mi NNW 9.2 mph - N/A   Clear
2:45 PM 82.4 °F - 46.4 °F 28% 30.27 in 8.0 mi ESE 5.8 mph - N/A   Clear
3:45 PM 80.6 °F - 33.8 °F 18% 30.24 in 8.0 mi ENE 6.9 mph - N/A   Clear
4:45 PM 78.8 °F - 44.6 °F 30% 30.22 in 8.0 mi ENE 13.8 mph - N/A   Clear
5:45 PM 75.2 °F - 42.8 °F 31% 30.23 in 8.0 mi NNE 11.5 mph - N/A   Clear
5:55 PM 79 °F - 33 °F 10% 29.74 in 16 mi NE 6.7 mph - -  
6:45 PM 68.0 °F - 42.8 °F 40% 30.23 in 7.0 mi ENE 10.4 mph - N/A   Clear
7:45 PM 62.6 °F - 41.0 °F 45% 30.25 in 7.0 mi SE 6.9 mph - N/A   Clear
8:45 PM 59.0 °F - 41.0 °F 51% 30.29 in 7.0 mi ESE 4.6 mph - N/A   Clear
8:55 PM 66 °F - 37 °F 22% 29.76 in 16 mi SE 8.9 mph - -  
9:50 PM 55.4 °F - 41.0 °F 58% 30.31 in 7.0 mi East 9.2 mph - N/A   Clear
10:42 PM 53.6 °F - 42.8 °F 67% 30.33 in 7.0 mi East 10.4 mph - N/A   Clear
11:45 PM 51.8 °F - 41.0 °F 67% 30.34 in 7.0 mi East 9.2 mph - N/A   Clear
11:55 PM 58 °F - 39 °F 38% 29.82 in 12 mi SW 6.7 mph - -